Location: Newark
(52.4787°S, 179.0532°W)
Time: 11:51:45
(UTC+00:00)

OTV 5 (USA 277) - Visible Passes

Search period start: 20 September 2019 00:00
Search period end: 30 September 2019 00:00
Orbit: 295 x 339 km, 54.5° (Epoch: 08 September)

Date Brightness Start Highest point End Pass type
(mag) Time Alt. Az. Time Alt. Az. Time Alt. Az.
20 Sep ? 15:53:57 12° NNE 15:53:57 12° NNE 15:54:16 10° NNE visible
27 Sep ? 08:05:12 10° NW 08:06:03 18° NW 08:06:03 18° NW visible
28 Sep ? 06:46:26 10° N 06:48:20 17° NE 06:49:56 12° E visible
28 Sep ? 08:19:37 10° WNW 08:20:51 24° WNW 08:20:51 24° WNW visible
29 Sep ? 07:00:13 10° NW 07:02:41 33° NNE 07:04:32 15° E visible
29 Sep ? 08:34:12 10° W 08:35:26 24° W 08:35:26 24° W visible
